Tracking 29892 objects as of 21-Nov-2024
HD Live streaming from Space Station
objects crossing your sky now

COSMOS 1997

Track COSMOS 1997 now!
10-day predictions
COSMOS 1997 is classified as:


NORAD ID: 19788
Int'l Code: 1989-009D
Perigee: 1,407.8 km
Apogee: 1,422.2 km
Inclination: 82.6 °
Period: 114.0 minutes
Semi major axis: 7785 km
RCS: 1.1265 m2 (large)
Launch date: February 10, 1989
Source: Commonwealth of Independent States (former USSR) (CIS)
Launch site: PLESETSK MISSILE AND SPACE COMPLEX (PKMTR)
Your satellite tracking list
Your tracking list is empty




NASA's NSSDC Master Catalog

Two Line Element Set (TLE):
1 19788U 89009D   24325.88022200  .00000030  00000-0  10466-3 0  9990
2 19788  82.6220   5.4558 0009238 200.7542 285.2114 12.63670742650095
Source of the keplerian elements: AFSPC